DW2149 Weather Reports


time (UTC)temp
C
wind
direction
speed
KPH
gust
KPH
rain 1hr
cm
rain 24hr
cm
rain mn
cm
humidity
%
barometer
mb
20260905222722 25 224 1.6 11.3 0.00 0.00 0.00 38 1012.6
20260905222513 25 213 0.0 11.3 0.00 0.00 0.00 40 1012.7
20260905221933 25 223 1.6 11.3 0.00 0.00 0.00 40 1012.8
20260905221721 25 225 3.2 11.3 0.00 0.00 0.00 40 1012.8
20260905221515 25 215 3.2 11.3 0.00 0.00 0.00 39 1012.8
20260905221314 25 209 3.2 11.3 0.00 0.00 0.00 40 1012.8
20260905221104 25 79 3.2 11.3 0.00 0.00 0.00 40 1012.8
20260905220859 25 230 1.6 11.3 0.00 0.00 0.00 39 1012.8
20260905220656 25 226 1.6 9.7 0.00 0.00 0.00 41 1012.8
20260905220310 25 209 1.6 9.7 0.00 0.00 0.00 40 1012.8
20260905220103 25 199 1.6 8.0 0.00 0.00 0.00 41 1012.8
20260905215858 25 216 1.6 8.0 0.00 0.00 0.00 42 1012.8
20260905215654 25 226 1.6 8.0 0.00 0.00 0.00 41 1012.8
20260905215446 25 75 1.6 6.4 0.00 0.00 0.00 40 1012.8
20260905215241 26 213 1.6 9.7 0.00 0.00 0.00 40 1012.9
20260905215036 26 213 1.6 9.7 0.00 0.00 0.00 39 1012.9
20260905214834 26 218 1.6 9.7 0.00 0.00 0.00 39 1012.9
20260905214626 26 211 0.0 9.7 0.00 0.00 0.00 39 1012.8
20260905214230 26 222 0.0 6.4 0.00 0.00 0.00 39 1012.8
20260905214017 25 244 0.0 4.8 0.00 0.00 0.00 40 1013.0
20260905213815 25 194 0.0 0.0 0.00 0.00 0.00 42 1013.0
20260905213608 25 194 3.2 12.9 0.00 0.00 0.00 42 1013.1
20260905213356 25 209 3.2 12.9 0.00 0.00 0.00 41 1013.1
20260905213152 25 207 3.2 12.9 0.00 0.00 0.00 40 1013.0
20260905212941 25 231 3.2 12.9 0.00 0.00 0.00 40 1013.1
20260905212736 25 257 1.6 12.9 0.00 0.00 0.00 40 1013.1
20260905212529 25 238 1.6 12.9 0.00 0.00 0.00 40 1013.0
20260905212319 25 213 3.2 12.9 0.00 0.00 0.00 40 1013.1
20260905212109 25 196 3.2 12.9 0.00 0.00 0.00 39 1013.1
20260905211902 25 223 3.2 12.9 0.00 0.00 0.00 42 1013.0
20260905211656 25 225 3.2 12.9 0.00 0.00 0.00 39 1013.1
20260905211452 25 207 3.2 12.9 0.00 0.00 0.00 40 1013.1
20260905211249 25 195 3.2 12.9 0.00 0.00 0.00 40 1013.1
20260905211043 25 209 3.2 12.9 0.00 0.00 0.00 41 1013.1
20260905210839 25 236 1.6 12.9 0.00 0.00 0.00 41 1013.1
20260905210301 25 226 1.6 12.9 0.00 0.00 0.00 42 1013.0
20260905205909 25 54 1.6 12.9 0.00 0.00 0.00 42 1013.0
20260905205657 25 200 1.6 12.9 0.00 0.00 0.00 42 1013.0
20260905205452 25 329 1.6 12.9 0.00 0.00 0.00 41 1013.0
20260905205245 25 304 1.6 12.9 0.00 0.00 0.00 42 1013.0
20260905205035 25 159 1.6 12.9 0.00 0.00 0.00 42 1013.1
20260905204824 25 248 1.6 12.9 0.00 0.00 0.00 42 1013.1
20260905204622 24 225 1.6 12.9 0.00 0.00 0.00 42 1013.1
20260905204420 24 215 0.0 9.7 0.00 0.00 0.00 44 1013.0
20260905204207 24 235 1.6 9.7 0.00 0.00 0.00 42 1013.1
20260905203957 24 235 1.6 9.7 0.00 0.00 0.00 42 1013.1
20260905203750 24 235 1.6 9.7 0.00 0.00 0.00 43 1013.1
20260905203209 24 218 1.6 11.3 0.00 0.00 0.00 43 1013.1
20260905203005 24 193 0.0 11.3 0.00 0.00 0.00 45 1013.1
20260905202802 24 195 1.6 11.3 0.00 0.00 0.00 45 1013.1
20260905202555 24 205 1.6 11.3 0.00 0.00 0.00 43 1013.2
20260905202343 24 211 1.6 11.3 0.00 0.00 0.00 43 1013.2
20260905201949 24 39 0.0 11.3 0.00 0.00 0.00 45 1013.2
20260905201742 24 218 0.0 11.3 0.00 0.00 0.00 44 1013.2
20260905201532 24 218 1.6 11.3 0.00 0.00 0.00 44 1013.2
20260905201324 24 225 0.0 9.7 0.00 0.00 0.00 46 1013.2
20260905201115 23 225 1.6 9.7 0.00 0.00 0.00 44 1013.2
20260905200905 23 223 1.6 11.3 0.00 0.00 0.00 45 1013.3
20260905200654 24 213 1.6 11.3 0.00 0.00 0.00 44 1013.2
20260905200308 23 218 1.6 11.3 0.00 0.00 0.00 45 1013.3
20260905195919 23 215 1.6 11.3 0.00 0.00 0.00 45 1013.2
20260905195715 23 215 1.6 11.3 0.00 0.00 0.00 45 1013.2
20260905195512 23 207 1.6 11.3 0.00 0.00 0.00 45 1013.2
20260905195306 23 207 1.6 11.3 0.00 0.00 0.00 46 1013.3
20260905194910 23 210 0.0 8.0 0.00 0.00 0.00 46 1013.3
20260905194704 23 213 1.6 8.0 0.00 0.00 0.00 46 1013.2
20260905194454 23 213 0.0 8.0 0.00 0.00 0.00 45 1013.2
20260905194249 23 214 1.6 9.7 0.00 0.00 0.00 46 1013.3
20260905194046 23 214 1.6 9.7 0.00 0.00 0.00 46 1013.3
20260905193836 22 214 1.6 9.7 0.00 0.00 0.00 47 1013.2
20260905193625 22 208 1.6 9.7 0.00 0.00 0.00 47 1013.3
20260905193415 22 227 1.6 11.3 0.00 0.00 0.00 48 1013.4
20260905193208 22 209 0.0 11.3 0.00 0.00 0.00 49 1013.4
20260905193001 22 222 0.0 11.3 0.00 0.00 0.00 50 1013.4
20260905192752 22 202 1.6 11.3 0.00 0.00 0.00 47 1013.4
20260905192544 22 202 1.6 11.3 0.00 0.00 0.00 47 1013.4
20260905192339 22 221 1.6 11.3 0.00 0.00 0.00 50 1013.4
20260905192133 22 221 3.2 11.3 0.00 0.00 0.00 48 1013.3
20260905191932 22 221 1.6 11.3 0.00 0.00 0.00 47 1013.5
20260905191720 22 217 1.6 11.3 0.00 0.00 0.00 46 1013.4
20260905191333 22 160 0.0 8.0 0.00 0.00 0.00 50 1013.5
20260905191125 22 264 0.0 0.0 0.00 0.00 0.00 52 1013.4
20260905190917 22 264 0.0 6.4 0.00 0.00 0.00 48 1013.4
20260905190709 22 264 0.0 6.4 0.00 0.00 0.00 50 1013.5
20260905190456 22 190 0.0 9.7 0.00 0.00 0.00 50 1013.6
20260905190250 22 217 1.6 9.7 0.00 0.00 0.00 56 1013.5
20260905190048 22 219 1.6 9.7 0.00 0.00 0.00 49 1013.6
20260905185652 22 219 1.6 9.7 0.00 0.00 0.00 51 1013.6
20260905185448 22 219 1.6 9.7 0.00 0.00 0.00 49 1013.6
20260905185235 22 248 0.0 9.7 0.00 0.00 0.00 52 1013.6
20260905185028 22 213 1.6 9.7 0.00 0.00 0.00 50 1013.7
20260905184825 22 211 1.6 9.7 0.00 0.00 0.00 50 1013.6
20260905184619 22 215 1.6 9.7 0.00 0.00 0.00 50 1013.6
20260905184230 22 206 3.2 9.7 0.00 0.00 0.00 52 1013.6
20260905184018 22 226 1.6 9.7 0.00 0.00 0.00 51 1013.6
20260905183808 21 215 1.6 9.7 0.00 0.00 0.00 53 1013.6
20260905183555 21 216 1.6 9.7 0.00 0.00 0.00 53 1013.5
20260905183349 21 175 1.6 9.7 0.00 0.00 0.00 55 1013.5
20260905183139 21 213 1.6 9.7 0.00 0.00 0.00 56 1013.4
20260905182932 20 213 1.6 9.7 0.00 0.00 0.00 55 1013.5
20260905182543 20 240 1.6 9.7 0.00 0.00 0.00 55 1013.5
20260905182337 20 217 0.0 8.0 0.00 0.00 0.00 55 1013.5
20260905182130 20 217 0.0 8.0 0.00 0.00 0.00 55 1013.6
20260905181919 20 217 0.0 8.0 0.00 0.00 0.00 55 1013.5
20260905181715 20 221 0.0 3.2 0.00 0.00 0.00 56 1013.5
20260905181513 20 221 1.6 9.7 0.00 0.00 0.00 56 1013.6
20260905181306 20 221 1.6 9.7 0.00 0.00 0.00 56 1013.5
20260905181101 20 223 1.6 9.7 0.00 0.00 0.00 56 1013.6
20260905180854 20 223 1.6 9.7 0.00 0.00 0.00 56 1013.5
20260905180647 20 223 1.6 9.7 0.00 0.00 0.00 56 1013.5
20260905180436 20 216 0.0 8.0 0.00 0.00 0.00 57 1013.5
20260905180224 20 215 0.0 6.4 0.00 0.00 0.00 57 1013.5
20260905180014 20 214 0.0 6.4 0.00 0.00 0.00 58 1013.4
20260905175802 20 61 0.0 4.8 0.00 0.00 0.00 58 1013.4
20260905175600 20 215 0.0 0.0 0.00 0.00 0.00 58 1013.3
20260905175359 19 215 1.6 9.7 0.00 0.00 0.00 58 1013.3
20260905175151 19 215 1.6 9.7 0.00 0.00 0.00 58 1013.4
20260905174940 19 214 1.6 9.7 0.00 0.00 0.00 58 1013.3
20260905174730 19 236 1.6 12.9 0.00 0.00 0.00 58 1013.3
20260905174528 19 229 1.6 12.9 0.00 0.00 0.00 59 1013.4
20260905174323 19 229 1.6 12.9 0.00 0.00 0.00 59 1013.3
20260905174120 19 108 1.6 12.9 0.00 0.00 0.00 60 1013.4
20260905173723 18 219 3.2 12.9 0.00 0.00 0.00 60 1013.5
20260905173515 18 213 1.6 12.9 0.00 0.00 0.00 61 1013.4
20260905173306 18 215 1.6 12.9 0.00 0.00 0.00 62 1013.4
20260905173053 18 215 1.6 12.9 0.00 0.00 0.00 62 1013.4
20260905172845 18 211 0.0 8.0 0.00 0.00 0.00 64 1013.4
20260905172454 18 82 0.0 1.6 0.00 0.00 0.00 65 1013.4
20260905172251 18 94 0.0 3.2 0.00 0.00 0.00 65 1013.5
20260905172041 17 224 1.6 3.2 0.00 0.00 0.00 65 1013.4
20260905171838 17 224 1.6 8.0 0.00 0.00 0.00 66 1013.4
20260905171631 17 231 0.0 8.0 0.00 0.00 0.00 67 1013.4
20260905171049 17 250 0.0 6.4 0.00 0.00 0.00 69 1013.3
20260905170837 17 217 0.0 0.0 0.00 0.00 0.00 70 1013.4
20260905170633 17 217 0.0 8.0 0.00 0.00 0.00 70 1013.4
20260905170422 16 50 0.0 4.8 0.00 0.00 0.00 71 1013.3
20260905170216 16 224 0.0 0.0 0.00 0.00 0.00 71 1013.3
20260905170012 16 224 0.0 3.2 0.00 0.00 0.00 72 1013.3
20260905165623 16 226 0.0 0.0 0.00 0.00 0.00 74 1013.3
20260905165421 16 226 0.0 0.0 0.00 0.00 0.00 76 1013.3
20260905165209 15 226 0.0 3.2 0.00 0.00 0.00 76 1013.3
20260905164818 15 226 0.0 6.4 0.00 0.00 0.00 78 1013.4
20260905164608 15 225 0.0 6.4 0.00 0.00 0.00 79 1013.4
20260905164357 15 227 0.0 6.4 0.00 0.00 0.00 80 1013.4
20260905164150 15 234 0.0 6.4 0.00 0.00 0.00 81 1013.4
20260905163758 14 234 0.0 6.4 0.00 0.00 0.00 83 1013.4
20260905163550 14 208 0.0 6.4 0.00 0.00 0.00 84 1013.4
20260905163156 13 231 0.0 6.4 0.00 0.00 0.00 84 1013.3
20260905162803 13 246 0.0 1.6 0.00 0.00 0.00 85 1013.3
20260905162553 13 246 0.0 4.8 0.00 0.00 0.00 85 1013.3
20260905162350 13 246 0.0 4.8 0.00 0.00 0.00 85 1013.3
20260905162146 13 246 0.0 4.8 0.00 0.00 0.00 86 1013.3
20260905161940 12 268 0.0 0.0 0.00 0.00 0.00 86 1013.3
20260905161731 12 268 0.0 0.0 0.00 0.00 0.00 86 1013.3
20260905161519 12 268 0.0 3.2 0.00 0.00 0.00 86 1013.3
20260905161313 12 268 0.0 1.6 0.00 0.00 0.00 86 1013.3
20260905160924 12 268 0.0 0.0 0.00 0.00 0.00 85 1013.3
20260905160722 12 268 0.0 0.0 0.00 0.00 0.00 85 1013.3
20260905160518 12 268 0.0 0.0 0.00 0.00 0.00 85 1013.3
20260905160308 11 268 0.0 0.0 0.00 0.00 0.00 85 1013.2
20260905160055 11 268 0.0 0.0 0.00 0.00 0.00 84 1013.2
20260905155848 11 268 0.0 0.0 0.00 0.00 0.00 84 1013.2
20260905155642 11 268 0.0 0.0 0.00 0.00 0.00 84 1013.2
20260905155434 11 268 0.0 0.0 0.00 0.00 0.00 84 1013.2
20260905155041 11 268 0.0 0.0 0.00 0.00 0.00 83 1013.2
20260905154836 11 268 0.0 0.0 0.00 0.00 0.00 83 1013.1
20260905154627 11 268 0.0 0.0 0.00 0.00 0.00 83 1013.2
20260905154420 11 268 0.0 0.0 0.00 0.00 0.00 83 1013.2
20260905154218 11 268 0.0 0.0 0.00 0.00 0.00 82 1013.2
20260905154006 11 268 0.0 0.0 0.00 0.00 0.00 82 1013.2
20260905153801 11 268 0.0 0.0 0.00 0.00 0.00 82 1013.2
20260905153551 11 268 0.0 0.0 0.00 0.00 0.00 82 1013.1
20260905153345 11 268 0.0 0.0 0.00 0.00 0.00 82 1013.2
20260905153144 10 268 0.0 0.0 0.00 0.00 0.00 82 1013.2
20260905152933 10 268 0.0 0.0 0.00 0.00 0.00 81 1013.1
20260905152720 10 268 0.0 0.0 0.00 0.00 0.00 81 1013.2
20260905152510 10 268 0.0 0.0 0.00 0.00 0.00 81 1013.2
20260905152258 10 268 0.0 0.0 0.00 0.00 0.00 81 1013.2
20260905152052 10 268 0.0 0.0 0.00 0.00 0.00 81 1013.2
20260905151845 10 268 0.0 0.0 0.00 0.00 0.00 81 1013.2
20260905151304 10 268 0.0 0.0 0.00 0.00 0.00 80 1013.1
20260905151054 10 268 0.0 0.0 0.00 0.00 0.00 80 1013.0
20260905150845 10 268 0.0 0.0 0.00 0.00 0.00 80 1013.0
20260905150640 10 268 0.0 0.0 0.00 0.00 0.00 80 1013.0
20260905150429 10 268 0.0 0.0 0.00 0.00 0.00 80 1013.0
20260905150224 10 268 0.0 0.0 0.00 0.00 0.00 80 1013.0
20260905150013 10 268 0.0 0.0 0.00 0.00 0.00 80 1013.0
20260905145802 10 268 0.0 0.0 0.00 0.00 0.00 80 1012.9
20260905145404 10 268 0.0 0.0 0.00 0.00 0.00 80 1012.9
20260905145154 10 268 0.0 0.0 0.00 0.00 0.00 79 1013.0
20260905144941 10 268 0.0 0.0 0.00 0.00 0.00 79 1012.9
20260905144730 10 268 0.0 0.0 0.00 0.00 0.00 79 1012.8
20260905144524 10 268 0.0 0.0 0.00 0.00 0.00 79 1012.8
20260905144317 10 268 0.0 0.0 0.00 0.00 0.00 79 1012.9
20260905144105 10 268 0.0 0.0 0.00 0.00 0.00 79 1012.9
20260905143900 10 268 0.0 0.0 0.00 0.00 0.00 79 1012.9
20260905143328 10 268 0.0 0.0 0.00 0.00 0.00 79 1012.8
20260905143120 10 268 0.0 0.0 0.00 0.00 0.00 79 1012.8
20260905142913 10 268 0.0 0.0 0.00 0.00 0.00 79 1012.8
20260905142521 10 268 0.0 0.0 0.00 0.00 0.00 79 1012.8
20260905142318 10 268 0.0 0.0 0.00 0.00 0.00 79 1012.8
20260905142107 10 268 0.0 0.0 0.00 0.00 0.00 79 1012.8
20260905141859 10 268 0.0 0.0 0.00 0.00 0.00 78 1012.8
20260905141657 10 268 0.0 0.0 0.00 0.00 0.00 78 1012.8
20260905141444 10 268 0.0 0.0 0.00 0.00 0.00 78 1012.7
20260905141057 10 268 0.0 0.0 0.00 0.00 0.00 78 1012.7
20260905140845 10 268 0.0 0.0 0.00 0.00 0.00 78 1012.6
20260905140639 10 268 0.0 0.0 0.00 0.00 0.00 78 1012.5
20260905140241 10 268 0.0 0.0 0.00 0.00 0.00 78 1012.6
20260905140034 10 268 0.0 0.0 0.00 0.00 0.00 78 1012.6
20260905135824 10 268 0.0 0.0 0.00 0.00 0.00 78 1012.6
20260905135613 10 268 0.0 0.0 0.00 0.00 0.00 78 1012.5
20260905135400 10 268 0.0 0.0 0.00 0.00 0.00 78 1012.5
20260905135149 10 268 0.0 0.0 0.00 0.00 0.00 77 1012.5
20260905134609 10 268 0.0 0.0 0.00 0.00 0.00 77 1012.5
20260905134357 10 268 0.0 0.0 0.00 0.00 0.00 77 1012.5
20260905134156 10 268 0.0 0.0 0.00 0.00 0.00 77 1012.5
20260905133953 10 268 0.0 0.0 0.00 0.00 0.00 77 1012.5
20260905133750 10 268 0.0 0.0 0.00 0.00 0.00 77 1012.5
20260905133537 10 268 0.0 0.0 0.00 0.00 0.00 77 1012.5
20260905133330 10 268 0.0 0.0 0.00 0.00 0.00 77 1012.5
20260905133118 10 268 0.0 0.0 0.00 0.00 0.00 77 1012.5
20260905132720 11 268 0.0 0.0 0.00 0.00 0.00 77 1012.5
20260905132509 11 268 0.0 0.0 0.00 0.00 0.00 77 1012.4
20260905132259 11 268 0.0 0.0 0.00 0.00 0.00 76 1012.4
20260905131714 11 268 0.0 0.0 0.00 0.00 0.00 76 1012.4
20260905131503 11 268 0.0 0.0 0.00 0.00 0.00 76 1012.4
20260905131259 11 268 0.0 0.0 0.00 0.00 0.00 76 1012.4
20260905131050 11 268 0.0 0.0 0.00 0.00 0.00 76 1012.4
20260905130845 11 268 0.0 0.0 0.00 0.00 0.00 76 1012.3
20260905130636 11 268 0.0 0.0 0.00 0.00 0.00 76 1012.3
20260905130432 11 268 0.0 0.0 0.00 0.00 0.00 76 1012.3
20260905130230 11 268 0.0 0.0 0.00 0.00 0.00 76 1012.3
20260905130022 11 268 0.0 0.0 0.00 0.00 0.00 76 1012.3
20260905125819 11 268 0.0 0.0 0.00 0.00 0.00 76 1012.3
20260905125608 11 268 0.0 0.0 0.00 0.00 0.00 76 1012.4
20260905125220 11 268 0.0 0.0 0.00 0.00 0.00 76 1012.3
20260905125018 11 268 0.0 0.0 0.00 0.00 0.00 76 1012.4
20260905124809 11 268 0.0 0.0 0.00 0.00 0.00 76 1012.4
20260905124414 11 268 0.0 0.0 0.00 0.00 0.00 76 1012.3
20260905124203 11 268 0.0 0.0 0.00 0.00 0.00 76 1012.3
20260905123952 11 268 0.0 0.0 0.00 0.00 0.00 76 1012.3
20260905123747 11 268 0.0 0.0 0.00 0.00 0.00 76 1012.3
20260905123542 11 268 0.0 0.0 0.00 0.00 0.00 76 1012.3
20260905123336 11 268 0.0 0.0 0.00 0.00 0.00 76 1012.3
20260905123133 11 268 0.0 0.0 0.00 0.00 0.00 76 1012.3
20260905122742 11 268 0.0 0.0 0.00 0.00 0.00 76 1012.3
20260905122346 11 268 0.0 0.0 0.00 0.00 0.00 76 1012.2
20260905122143 11 268 0.0 0.0 0.00 0.00 0.00 76 1012.3
20260905121931 11 268 0.0 0.0 0.00 0.00 0.00 76 1012.3
20260905121723 11 268 0.0 0.0 0.00 0.00 0.00 76 1012.3
20260905121518 11 268 0.0 0.0 0.00 0.00 0.00 76 1012.3
20260905120940 11 268 0.0 0.0 0.00 0.00 0.00 76 1012.3
20260905120729 11 268 0.0 0.0 0.00 0.00 0.00 76 1012.3
20260905120521 11 268 0.0 0.0 0.00 0.00 0.00 76 1012.3
20260905120130 12 268 0.0 0.0 0.00 0.00 0.00 77 1012.3
20260905115740 12 268 0.0 0.0 0.00 0.00 0.00 77 1012.3
20260905115530 12 268 0.0 0.0 0.00 0.00 0.00 77 1012.3
20260905115320 12 268 0.0 0.0 0.00 0.00 0.00 77 1012.4
20260905115111 12 268 0.0 0.0 0.00 0.00 0.00 77 1012.3
20260905114908 12 268 0.0 0.0 0.00 0.00 0.00 77 1012.3
20260905114657 12 268 0.0 0.0 0.00 0.00 0.00 77 1012.4
20260905114452 12 268 0.0 0.0 0.00 0.00 0.00 77 1012.4
20260905114251 12 268 0.0 0.0 0.00 0.00 0.00 77 1012.4
20260905113854 11 268 0.0 0.0 0.00 0.00 0.00 77 1012.4
20260905113646 12 268 0.0 0.0 0.00 0.00 0.00 77 1012.4
20260905113252 11 268 0.0 0.0 0.00 0.00 0.00 77 1012.4
20260905113044 11 268 0.0 0.0 0.00 0.00 0.00 77 1012.5
20260905112834 11 268 0.0 0.0 0.00 0.00 0.00 77 1012.5
20260905112626 11 268 0.0 0.0 0.00 0.00 0.00 77 1012.5
20260905112235 11 268 0.0 0.0 0.00 0.00 0.00 77 1012.5
20260905112031 11 268 0.0 0.0 0.00 0.00 0.00 77 1012.5
20260905111829 11 268 0.0 0.0 0.00 0.00 0.00 77 1012.5
20260905111618 11 268 0.0 0.0 0.00 0.00 0.00 77 1012.5
20260905111408 11 268 0.0 0.0 0.00 0.00 0.00 77 1012.5
20260905111206 11 268 0.0 0.0 0.00 0.00 0.00 77 1012.5
20260905110955 11 268 0.0 0.0 0.00 0.00 0.00 77 1012.5
20260905110745 11 268 0.0 0.0 0.00 0.00 0.00 77 1012.5
20260905110541 11 268 0.0 0.0 0.00 0.00 0.00 77 1012.5
20260905110330 11 268 0.0 0.0 0.00 0.00 0.00 77 1012.5
20260905110118 11 268 0.0 0.0 0.00 0.00 0.00 77 1012.5
20260905105905 11 268 0.0 0.0 0.00 0.00 0.00 77 1012.5
20260905105508 11 268 0.0 0.0 0.00 0.00 0.00 77 1012.5
20260905105110 11 268 0.0 0.0 0.00 0.00 0.00 77 1012.6
20260905104904 11 268 0.0 0.0 0.00 0.00 0.00 77 1012.5
20260905104659 11 268 0.0 0.0 0.00 0.00 0.00 77 1012.5
20260905104457 11 268 0.0 0.0 0.00 0.00 0.00 77 1012.5
20260905104245 11 268 0.0 0.0 0.00 0.00 0.00 77 1012.5
20260905104041 11 268 0.0 0.0 0.00 0.00 0.00 76 1012.5
20260905103839 11 268 0.0 0.0 0.00 0.00 0.00 76 1012.5
20260905103447 11 268 0.0 0.0 0.00 0.00 0.00 76 1012.5
20260905103243 11 268 0.0 0.0 0.00 0.00 0.00 76 1012.4
20260905103032 11 268 0.0 0.0 0.00 0.00 0.00 76 1012.5
20260905102827 11 268 0.0 0.0 0.00 0.00 0.00 76 1012.5
20260905102625 11 268 0.0 0.0 0.00 0.00 0.00 76 1012.5
20260905102422 11 268 0.0 0.0 0.00 0.00 0.00 76 1012.5
20260905102209 11 268 0.0 0.0 0.00 0.00 0.00 76 1012.5
20260905101957 11 268 0.0 0.0 0.00 0.00 0.00 76 1012.5
20260905101750 11 268 0.0 0.0 0.00 0.00 0.00 76 1012.5
20260905101547 11 268 0.0 0.0 0.00 0.00 0.00 76 1012.6
20260905101339 11 268 0.0 0.0 0.00 0.00 0.00 76 1012.5
20260905101136 11 268 0.0 0.0 0.00 0.00 0.00 76 1012.6
20260905100934 11 268 0.0 0.0 0.00 0.00 0.00 76 1012.6
20260905100730 11 268 0.0 0.0 0.00 0.00 0.00 76 1012.7
20260905100521 11 268 0.0 0.0 0.00 0.00 0.00 76 1012.7
20260905100134 11 268 0.0 0.0 0.00 0.00 0.00 76 1012.7
20260905095928 11 268 0.0 0.0 0.00 0.00 0.00 76 1012.7
20260905095727 11 268 0.0 0.0 0.00 0.00 0.00 76 1012.7
20260905095330 11 268 0.0 0.0 0.00 0.00 0.00 76 1012.7
20260905094751 11 268 0.0 0.0 0.00 0.00 0.00 76 1012.6
20260905094401 11 268 0.0 0.0 0.00 0.00 0.00 76 1012.7
20260905094151 11 268 0.0 0.0 0.00 0.00 0.00 76 1012.7
20260905093939 11 268 0.0 0.0 0.00 0.00 0.00 76 1012.7
20260905093728 11 268 0.0 0.0 0.00 0.00 0.00 76 1012.7
20260905093521 11 268 0.0 0.0 0.00 0.00 0.00 76 1012.7
20260905093317 11 268 0.0 0.0 0.00 0.00 0.00 76 1012.7
20260905093108 11 268 0.0 0.0 0.00 0.00 0.00 76 1012.7
20260905092900 11 268 0.0 0.0 0.00 0.00 0.00 76 1012.7
20260905092657 11 268 0.0 0.0 0.00 0.00 0.00 75 1012.7
20260905092455 11 268 0.0 0.0 0.00 0.00 0.00 75 1012.8
20260905092244 11 268 0.0 0.0 0.00 0.00 0.00 75 1012.8
20260905091849 11 268 0.0 0.0 0.00 0.00 0.00 75 1012.8
20260905091642 11 268 0.0 0.0 0.00 0.00 0.00 75 1012.8
20260905091441 11 268 0.0 0.0 0.00 0.00 0.00 75 1012.9
20260905091051 11 268 0.0 0.0 0.00 0.00 0.00 75 1012.8
20260905090702 11 268 0.0 0.0 0.00 0.00 0.00 75 1012.8
20260905090456 11 268 0.0 0.0 0.00 0.00 0.00 75 1012.8
20260905090100 11 268 0.0 0.0 0.00 0.00 0.00 75 1012.8
20260905085858 11 268 0.0 0.0 0.00 0.00 0.00 75 1012.8
20260905085650 11 268 0.0 0.0 0.00 0.00 0.00 74 1012.9
20260905085257 11 268 0.0 0.0 0.00 0.00 0.00 74 1012.9
20260905085048 11 268 0.0 0.0 0.00 0.00 0.00 74 1013.0
20260905084835 11 268 0.0 0.0 0.00 0.00 0.00 74 1013.0
20260905084624 11 268 0.0 0.0 0.00 0.00 0.00 74 1013.0
20260905084422 11 268 0.0 0.0 0.00 0.00 0.00 74 1013.0
20260905084215 11 268 0.0 0.0 0.00 0.00 0.00 74 1013.0
20260905083826 11 268 0.0 0.0 0.00 0.00 0.00 74 1013.0
20260905083613 11 268 0.0 0.0 0.00 0.00 0.00 74 1013.1
20260905083408 11 268 0.0 0.0 0.00 0.00 0.00 74 1013.0
20260905083200 11 268 0.0 0.0 0.00 0.00 0.00 74 1013.1
20260905082947 11 268 0.0 0.0 0.00 0.00 0.00 74 1013.0
20260905082551 11 268 0.0 0.0 0.00 0.00 0.00 74 1013.0
20260905082344 12 268 0.0 0.0 0.00 0.00 0.00 73 1012.9
20260905082136 12 268 0.0 0.0 0.00 0.00 0.00 74 1013.0
20260905081930 12 268 0.0 0.0 0.00 0.00 0.00 73 1012.9
20260905081718 12 268 0.0 0.0 0.00 0.00 0.00 73 1012.9
20260905081505 12 268 0.0 0.0 0.00 0.00 0.00 73 1013.0
20260905081257 12 268 0.0 0.0 0.00 0.00 0.00 73 1013.0
20260905081047 12 268 0.0 0.0 0.00 0.00 0.00 73 1013.0
20260905080649 12 268 0.0 0.0 0.00 0.00 0.00 73 1013.1
20260905080447 12 268 0.0 0.0 0.00 0.00 0.00 73 1013.0
20260905080240 12 268 0.0 0.0 0.00 0.00 0.00 73 1013.0
20260905080034 12 268 0.0 0.0 0.00 0.00 0.00 73 1013.0
20260905075636 12 268 0.0 0.0 0.00 0.00 0.00 73 1013.0
20260905075428 12 268 0.0 0.0 0.00 0.00 0.00 73 1012.9
20260905075227 12 268 0.0 0.0 0.00 0.00 0.00 72 1012.9
20260905075015 12 268 0.0 0.0 0.00 0.00 0.00 72 1013.0
20260905074620 12 268 0.0 0.0 0.00 0.00 0.00 72 1012.9
20260905074411 12 268 0.0 0.0 0.00 0.00 0.00 72 1012.8
20260905074207 12 268 0.0 0.0 0.00 0.00 0.00 72 1012.7
20260905074006 12 268 0.0 0.0 0.00 0.00 0.00 72 1012.8
20260905073756 12 268 0.0 0.0 0.00 0.00 0.00 72 1012.9
20260905073553 12 268 0.0 0.0 0.00 0.00 0.00 72 1012.8
20260905073344 12 268 0.0 0.0 0.00 0.00 0.00 72 1012.9
20260905073140 12 268 0.0 0.0 0.00 0.00 0.00 72 1012.8
20260905072744 12 268 0.0 0.0 0.00 0.00 0.00 72 1012.8
20260905072541 12 268 0.0 0.0 0.00 0.00 0.00 71 1012.9
20260905072332 12 268 0.0 0.0 0.00 0.00 0.00 71 1012.8
20260905072122 12 268 0.0 0.0 0.00 0.00 0.00 71 1012.7
20260905071920 12 268 0.0 0.0 0.00 0.00 0.00 71 1012.8
20260905071709 12 268 0.0 0.0 0.00 0.00 0.00 71 1012.7
20260905071312 12 268 0.0 0.0 0.00 0.00 0.00 71 1012.7
20260905070925 12 268 0.0 0.0 0.00 0.00 0.00 71 1012.7
20260905070721 12 268 0.0 0.0 0.00 0.00 0.00 71 1012.7
20260905070511 13 268 0.0 0.0 0.00 0.00 0.00 71 1012.6
20260905070304 13 268 0.0 0.0 0.00 0.00 0.00 71 1012.6
20260905065546 13 268 0.0 0.0 0.00 0.00 0.00 71 1012.6
20260905065344 13 268 0.0 0.0 0.00 0.00 0.00 71 1012.6
20260905065138 13 268 0.0 0.0 0.00 0.00 0.00 71 1012.6
20260905064937 13 268 0.0 0.0 0.00 0.00 0.00 70 1012.5
20260905064547 13 268 0.0 0.0 0.00 0.00 0.00 70 1012.5
20260905064343 13 268 0.0 0.0 0.00 0.00 0.00 70 1012.5
20260905064133 13 268 0.0 0.0 0.00 0.00 0.00 70 1012.5
20260905063745 13 268 0.0 0.0 0.00 0.00 0.00 70 1012.5
20260905063539 13 268 0.0 0.0 0.00 0.00 0.00 70 1012.5
20260905063152 13 268 0.0 0.0 0.00 0.00 0.00 70 1012.4
20260905062943 13 268 0.0 0.0 0.00 0.00 0.00 70 1012.5
20260905062731 13 268 0.0 0.0 0.00 0.00 0.00 70 1012.5
20260905062518 13 268 0.0 0.0 0.00 0.00 0.00 70 1012.5
20260905062122 13 268 0.0 0.0 0.00 0.00 0.00 70 1012.4
20260905061920 13 268 0.0 0.0 0.00 0.00 0.00 70 1012.5
20260905061708 13 268 0.0 0.0 0.00 0.00 0.00 70 1012.4
20260905061321 13 268 0.0 0.0 0.00 0.00 0.00 70 1012.4
20260905061117 13 268 0.0 0.0 0.00 0.00 0.00 70 1012.4
20260905060908 13 268 0.0 0.0 0.00 0.00 0.00 70 1012.4
20260905060704 13 268 0.0 0.0 0.00 0.00 0.00 70 1012.4
20260905060121 13 268 0.0 0.0 0.00 0.00 0.00 69 1012.3
20260905055914 13 268 0.0 0.0 0.00 0.00 0.00 69 1012.3
20260905055708 13 268 0.0 0.0 0.00 0.00 0.00 69 1012.3
20260905055455 13 268 0.0 0.0 0.00 0.00 0.00 69 1012.3
20260905055250 13 268 0.0 0.0 0.00 0.00 0.00 69 1012.3
20260905055040 13 268 0.0 0.0 0.00 0.00 0.00 69 1012.3
20260905054836 13 268 0.0 0.0 0.00 0.00 0.00 69 1012.3
20260905054633 13 268 0.0 0.0 0.00 0.00 0.00 69 1012.3
20260905054429 13 268 0.0 0.0 0.00 0.00 0.00 69 1012.3
20260905054222 13 268 0.0 0.0 0.00 0.00 0.00 69 1012.3
20260905054012 13 268 0.0 0.0 0.00 0.00 0.00 69 1012.3
20260905053802 13 268 0.0 0.0 0.00 0.00 0.00 69 1012.3
20260905053416 13 268 0.0 0.0 0.00 0.00 0.00 68 1012.3
20260905053206 13 268 0.0 0.0 0.00 0.00 0.00 68 1012.3
20260905053001 13 268 0.0 0.0 0.00 0.00 0.00 68 1012.3
20260905052614 13 268 0.0 0.0 0.00 0.00 0.00 68 1012.3
20260905052412 13 268 0.0 0.0 0.00 0.00 0.00 68 1012.4
20260905051831 13 268 0.0 0.0 0.00 0.00 0.00 68 1012.4
20260905051438 13 268 0.0 0.0 0.00 0.00 0.00 67 1012.4
20260905051233 13 268 0.0 0.0 0.00 0.00 0.00 67 1012.4
20260905050844 13 268 0.0 0.0 0.00 0.00 0.00 67 1012.4
20260905050633 13 268 0.0 0.0 0.00 0.00 0.00 67 1012.4
20260905050429 13 268 0.0 0.0 0.00 0.00 0.00 66 1012.4
20260905050227 13 268 0.0 0.0 0.00 0.00 0.00 66 1012.4
20260905045840 13 268 0.0 0.0 0.00 0.00 0.00 66 1012.4
20260905045629 13 268 0.0 0.0 0.00 0.00 0.00 66 1012.4
20260905045422 13 268 0.0 0.0 0.00 0.00 0.00 66 1012.4
20260905045209 13 268 0.0 0.0 0.00 0.00 0.00 66 1012.4
20260905045002 13 268 0.0 0.0 0.00 0.00 0.00 66 1012.4
20260905044756 13 268 0.0 0.0 0.00 0.00 0.00 66 1012.4
20260905044551 13 268 0.0 0.0 0.00 0.00 0.00 65 1012.4
20260905044342 13 268 0.0 0.0 0.00 0.00 0.00 66 1012.3
20260905044137 14 268 0.0 0.0 0.00 0.00 0.00 65 1012.4
20260905043935 14 268 0.0 0.0 0.00 0.00 0.00 65 1012.4
20260905043724 14 268 0.0 0.0 0.00 0.00 0.00 65 1012.3
20260905043517 14 268 0.0 0.0 0.00 0.00 0.00 65 1012.3
20260905043123 14 268 0.0 0.0 0.00 0.00 0.00 64 1012.3
20260905042917 14 268 0.0 0.0 0.00 0.00 0.00 64 1012.3
20260905042711 14 268 0.0 0.0 0.00 0.00 0.00 64 1012.3
20260905042457 14 268 0.0 0.0 0.00 0.00 0.00 64 1012.3
20260905042244 14 268 0.0 0.0 0.00 0.00 0.00 63 1012.2
20260905042035 14 268 0.0 0.0 0.00 0.00 0.00 63 1012.2
20260905041832 15 268 0.0 0.0 0.00 0.00 0.00 63 1012.2
20260905041622 15 268 0.0 0.0 0.00 0.00 0.00 63 1012.3
20260905041413 15 268 0.0 0.0 0.00 0.00 0.00 63 1012.2
20260905041209 15 268 0.0 0.0 0.00 0.00 0.00 63 1012.2
20260905041002 15 268 0.0 0.0 0.00 0.00 0.00 63 1012.1
20260905040750 15 268 0.0 0.0 0.00 0.00 0.00 62 1012.2
20260905040545 15 268 0.0 0.0 0.00 0.00 0.00 62 1012.1
20260905040343 15 268 0.0 0.0 0.00 0.00 0.00 62 1012.1
20260905040142 15 268 0.0 0.0 0.00 0.00 0.00 62 1012.1
20260905035934 15 268 0.0 0.0 0.00 0.00 0.00 62 1012.0
20260905035725 15 268 0.0 0.0 0.00 0.00 0.00 62 1012.1
20260905035524 15 268 0.0 0.0 0.00 0.00 0.00 61 1012.1
20260905035320 15 268 0.0 0.0 0.00 0.00 0.00 61 1012.1
20260905035118 15 268 0.0 0.0 0.00 0.00 0.00 61 1012.0
20260905034914 15 268 0.0 0.0 0.00 0.00 0.00 61 1012.0
20260905034527 15 268 0.0 0.0 0.00 0.00 0.00 60 1011.9
20260905034320 16 268 0.0 0.0 0.00 0.00 0.00 60 1011.9
20260905034114 16 268 0.0 0.0 0.00 0.00 0.00 60 1011.9
20260905033911 16 268 0.0 0.0 0.00 0.00 0.00 60 1011.9
20260905033705 16 268 0.0 0.0 0.00 0.00 0.00 59 1011.9
20260905033452 16 268 0.0 0.0 0.00 0.00 0.00 60 1011.8
20260905033240 16 268 0.0 0.0 0.00 0.00 0.00 59 1011.8
20260905033039 16 268 0.0 0.0 0.00 0.00 0.00 59 1011.8
20260905032651 16 268 0.0 0.0 0.00 0.00 0.00 59 1011.7
20260905032444 16 268 0.0 0.0 0.00 0.00 0.00 59 1011.7
20260905032238 16 268 0.0 0.0 0.00 0.00 0.00 58 1011.6
20260905032035 16 268 0.0 0.0 0.00 0.00 0.00 58 1011.7
20260905031825 16 268 0.0 0.0 0.00 0.00 0.00 58 1011.6
20260905031616 17 268 0.0 0.0 0.00 0.00 0.00 58 1011.6
20260905031407 17 268 0.0 0.0 0.00 0.00 0.00 58 1011.6
20260905031203 17 268 0.0 0.0 0.00 0.00 0.00 58 1011.6
20260905031000 17 268 0.0 0.0 0.00 0.00 0.00 57 1011.6
20260905030749 17 268 0.0 0.0 0.00 0.00 0.00 57 1011.6
20260905030541 17 268 0.0 0.0 0.00 0.00 0.00 57 1011.5
20260905030335 17 268 0.0 0.0 0.00 0.00 0.00 57 1011.5
20260905030132 17 268 0.0 0.0 0.00 0.00 0.00 57 1011.5
20260905025923 17 268 0.0 0.0 0.00 0.00 0.00 57 1011.5
20260905025719 17 268 0.0 0.0 0.00 0.00 0.00 56 1011.4
20260905025515 18 268 0.0 0.0 0.00 0.00 0.00 56 1011.4
20260905025311 18 268 0.0 0.0 0.00 0.00 0.00 56 1011.5
20260905025103 18 268 0.0 0.0 0.00 0.00 0.00 55 1011.4
20260905024900 18 268 0.0 0.0 0.00 0.00 0.00 55 1011.4
20260905024658 18 268 0.0 0.0 0.00 0.00 0.00 55 1011.4
20260905024454 18 268 0.0 0.0 0.00 0.00 0.00 55 1011.4
20260905024244 18 268 0.0 0.0 0.00 0.00 0.00 55 1011.4
20260905024033 18 268 0.0 0.0 0.00 0.00 0.00 55 1011.3
20260905023634 18 268 0.0 0.0 0.00 0.00 0.00 55 1011.3
20260905023422 18 268 0.0 0.0 0.00 0.00 0.00 54 1011.3
20260905023214 18 268 0.0 0.0 0.00 0.00 0.00 54 1011.3
20260905022637 19 268 0.0 0.0 0.00 0.00 0.00 54 1011.3
20260905022425 19 268 0.0 0.0 0.00 0.00 0.00 54 1011.2
20260905022220 19 268 0.0 0.0 0.00 0.00 0.00 54 1011.2
20260905022010 19 268 0.0 0.0 0.00 0.00 0.00 54 1011.2
20260905021807 19 268 0.0 0.0 0.00 0.00 0.00 54 1011.2
20260905021556 20 268 0.0 0.0 0.00 0.00 0.00 54 1011.2
20260905021209 20 268 0.0 0.0 0.00 0.00 0.00 53 1011.2
20260905020818 20 268 0.0 0.0 0.00 0.00 0.00 53 1011.2
20260905020609 20 268 0.0 0.0 0.00 0.00 0.00 53 1011.2
20260905020400 20 268 0.0 0.0 0.00 0.00 0.00 53 1011.2
20260905020150 20 268 0.0 0.0 0.00 0.00 0.00 53 1011.1
20260905015942 20 268 0.0 0.0 0.00 0.00 0.00 53 1011.2
20260905015736 20 268 0.0 0.0 0.00 0.00 0.00 52 1011.1
20260905015527 20 268 0.0 0.0 0.00 0.00 0.00 52 1011.1
20260905015319 20 268 0.0 0.0 0.00 0.00 0.00 52 1011.1
20260905015114 20 268 0.0 0.0 0.00 0.00 0.00 51 1011.1
20260905014912 20 268 0.0 0.0 0.00 0.00 0.00 51 1011.2
20260905014710 20 268 0.0 0.0 0.00 0.00 0.00 51 1011.1
20260905014502 20 268 0.0 0.0 0.00 0.00 0.00 51 1011.1
20260905014256 20 268 0.0 1.6 0.00 0.00 0.00 51 1011.2
20260905014052 20 268 0.0 0.0 0.00 0.00 0.00 51 1011.1
20260905013845 20 268 0.0 0.0 0.00 0.00 0.00 51 1011.1
20260905013639 20 268 0.0 0.0 0.00 0.00 0.00 51 1011.2
20260905013425 20 268 0.0 0.0 0.00 0.00 0.00 51 1011.2
20260905013217 20 268 0.0 0.0 0.00 0.00 0.00 51 1011.2
20260905013008 20 266 0.0 8.0 0.00 0.00 0.00 51 1011.2
20260905012755 20 323 0.0 6.4 0.00 0.00 0.00 51 1011.2
20260905012549 20 282 0.0 6.4 0.00 0.00 0.00 51 1011.1
20260905012340 21 281 0.0 6.4 0.00 0.00 0.00 50 1011.2
20260905012132 21 281 0.0 6.4 0.00 0.00 0.00 50 1011.2
20260905011927 21 309 0.0 6.4 0.00 0.00 0.00 50 1011.1
20260905011715 21 252 0.0 8.0 0.00 0.00 0.00 50 1011.1
20260905011506 21 275 0.0 8.0 0.00 0.00 0.00 50 1011.1
20260905011257 21 283 0.0 8.0 0.00 0.00 0.00 50 1011.1
20260905011043 21 283 0.0 8.0 0.00 0.00 0.00 50 1011.0
20260905010836 21 337 0.0 8.0 0.00 0.00 0.00 50 1011.0
20260905010305 21 80 0.0 6.4 0.00 0.00 0.00 50 1011.0
20260905005724 21 257 0.0 8.0 0.00 0.00 0.00 50 1010.9
20260905005512 21 298 0.0 8.0 0.00 0.00 0.00 50 1011.0
20260905005309 21 268 0.0 8.0 0.00 0.00 0.00 50 1011.0
20260905005103 21 269 0.0 8.0 0.00 0.00 0.00 49 1011.0
20260905004856 21 268 0.0 8.0 0.00 0.00 0.00 50 1011.0
20260905004500 21 226 0.0 8.0 0.00 0.00 0.00 50 1010.9
20260905004254 21 226 0.0 8.0 0.00 0.00 0.00 50 1010.8
20260905003904 21 282 0.0 0.0 0.00 0.00 0.00 51 1010.7
20260905003701 21 282 0.0 1.6 0.00 0.00 0.00 50 1010.7
20260905003459 21 282 0.0 6.4 0.00 0.00 0.00 50 1010.8
20260905003251 21 282 0.0 6.4 0.00 0.00 0.00 50 1010.8
20260905002856 21 242 0.0 6.4 0.00 0.00 0.00 51 1010.7
20260905002643 21 242 0.0 6.4 0.00 0.00 0.00 51 1010.8
20260905002438 21 242 0.0 0.0 0.00 0.00 0.00 51 1010.8
20260905002227 21 242 0.0 0.0 0.00 0.00 0.00 51 1010.7
20260905002015 21 242 0.0 4.8 0.00 0.00 0.00 51 1010.9
20260905001623 21 241 0.0 4.8 0.00 0.00 0.00 50 1010.9
20260905001422 21 241 1.6 3.2 0.00 0.00 0.00 50 1010.9
20260905001217 21 241 1.6 8.0 0.00 0.00 0.00 50 1010.9
20260905001015 21 241 1.6 8.0 0.00 0.00 0.00 50 1010.8
20260905000808 21 254 1.6 8.0 0.00 0.00 0.00 50 1011.0
20260905000600 21 262 1.6 8.0 0.00 0.00 0.00 50 1010.9
20260905000349 22 232 0.0 8.0 0.00 0.00 0.00 50 1010.8
20260905000001 22 242 0.0 8.0 0.00 0.00 0.00 51 1010.9
20260904235754 22 336 0.0 4.8 0.00 0.00 0.00 51 1010.9
20260904235358 22 288 0.0 4.8 0.00 0.00 0.00 51 1010.8
20260904235149 21 201 0.0 4.8 0.00 0.00 0.00 51 1010.9
20260904234938 21 200 0.0 3.2 0.00 0.00 0.00 52 1010.9
20260904234545 21 200 0.0 3.2 0.00 0.00 0.00 52 1010.9
20260904234337 21 184 0.0 3.2 0.00 0.00 0.00 53 1010.9
20260904234130 21 184 0.0 3.2 0.00 0.00 0.00 52 1010.9
20260904233927 21 200 0.0 1.6 0.00 0.00 0.00 52 1011.0
20260904233724 21 200 0.0 0.0 0.00 0.00 0.00 52 1011.0
20260904233519 21 200 0.0 4.8 0.00 0.00 0.00 52 1011.0
20260904233312 21 175 0.0 3.2 0.00 0.00 0.00 52 1011.0
20260904233101 21 175 0.0 3.2 0.00 0.00 0.00 52 1011.0
20260904232900 21 211 0.0 1.6 0.00 0.00 0.00 53 1011.0
20260904232657 21 211 0.0 4.8 0.00 0.00 0.00 52 1011.0
20260904232308 21 224 0.0 1.6 0.00 0.00 0.00 52 1011.0
20260904232057 21 284 0.0 0.0 0.00 0.00 0.00 52 1011.0
20260904231519 21 284 0.0 6.4 0.00 0.00 0.00 53 1011.0
20260904231305 21 284 0.0 6.4 0.00 0.00 0.00 53 1010.9
20260904231055 21 284 0.0 6.4 0.00 0.00 0.00 54 1011.0
20260904230517 21 171 0.0 0.0 0.00 0.00 0.00 54 1011.0
20260904230308 21 171 0.0 0.0 0.00 0.00 0.00 54 1011.0
20260904230105 21 171 0.0 0.0 0.00 0.00 0.00 54 1011.1
20260904225857 21 171 0.0 0.0 0.00 0.00 0.00 55 1011.1
20260904225315 21 170 0.0 3.2 0.00 0.00 0.00 54 1011.2
20260904225104 21 163 0.0 3.2 0.00 0.00 0.00 56 1011.2
20260904224856 21 163 0.0 0.0 0.00 0.00 0.00 54 1011.2
20260904224652 21 163 0.0 0.0 0.00 0.00 0.00 56 1011.3
20260904224442 21 163 0.0 4.8 0.00 0.00 0.00 55 1011.3
20260904224235 21 163 0.0 4.8 0.00 0.00 0.00 55 1011.2
20260904224028 21 98 0.0 0.0 0.00 0.00 0.00 55 1011.3
20260904223826 21 98 0.0 0.0 0.00 0.00 0.00 55 1011.3
20260904223620 21 98 0.0 0.0 0.00 0.00 0.00 55 1011.3
20260904223409 21 98 0.0 3.2 0.00 0.00 0.00 56 1011.3
20260904223019 21 224 0.0 1.6 0.00 0.00 0.00 56 1011.4